This is the latest recevied weather packets stored in our database for station/object KD8OZS. If no packets are shown the sender has not sent any weather packets the latest 10 day(s).
| Time | Temp. | Humidity | Pressure | Rain* | Wind** | Luminosity | Snow |
|---|---|---|---|---|---|---|---|
| 1777497981 | 11.67° C | 88% | 1001.7 hPa | 0 mm | - | 138 W/m² | - |
| 1777497676 | 11.67° C | 88% | 1002 hPa | 0 mm | - | 88 W/m² | - |
| 1777497373 | 11.67° C | 88% | 1002.1 hPa | 0 mm | - | 81 W/m² | - |
| 1777497069 | 11.67° C | 88% | 1002.1 hPa | 0 mm | - | 62 W/m² | - |
| 1777496766 | 11.67° C | 88% | 1002.1 hPa | 0 mm | - | 52 W/m² | - |
| 1777496463 | 11.67° C | 88% | 1002 hPa | 0 mm | - | 75 W/m² | - |
| 1777496159 | 11.67° C | 89% | 1001.8 hPa | 0 mm | - | 170 W/m² | - |
| 1777495855 | 11.67° C | 89% | 1001.9 hPa | 0 mm | - | 105 W/m² | - |
| 1777495551 | 11.67° C | 89% | 1001.9 hPa | 0 mm | - | 71 W/m² | - |
| 1777495247 | 11.67° C | 89% | 1001.7 hPa | 0 mm | - | 86 W/m² | - |
| 1777494945 | 11.67° C | 89% | 1001.7 hPa | 0 mm | - | 95 W/m² | - |
| 1777494642 | 11.67° C | 89% | 1001.8 hPa | 0 mm | - | 193 W/m² | - |
| 1777494339 | 11.67° C | 89% | 1001.8 hPa | 0 mm | - | 97 W/m² | - |
| 1777494035 | 12.78° C | 88% | 1001.4 hPa | 0 mm | - | 98 W/m² | - |
| 1777493733 | 12.22° C | 88% | 1001.5 hPa | 0 mm | - | 117 W/m² | - |
| 1777493432 | 12.22° C | 88% | 1001.7 hPa | 0 mm | - | 116 W/m² | - |
| 1777493127 | 12.22° C | 88% | 1001.5 hPa | 0 mm | - | 133 W/m² | - |
| 1777492824 | 12.78° C | 88% | 1001.4 hPa | 0 mm | - | 115 W/m² | - |
| 1777492520 | 12.78° C | 87% | 1001.2 hPa | 0 mm | - | 159 W/m² | - |
| 1777492216 | 13.33° C | 88% | 1001.2 hPa | 0 mm | - | 94 W/m² | - |
| 1777491914 | 13.33° C | 88% | 1001.1 hPa | 0 mm | - | 192 W/m² | - |
| 1777491610 | 13.33° C | 89% | 1001.2 hPa | 0 mm | - | 229 W/m² | - |
| 1777491308 | 13.33° C | 89% | 1000.9 hPa | 0 mm | - | 195 W/m² | - |
| 1777491004 | 13.33° C | 89% | 1000.9 hPa | 0 mm | - | 130 W/m² | - |
| 1777490700 | 13.33° C | 89% | 1000.9 hPa | 0 mm | - | 107 W/m² | - |
* Rain latest hour (hover to see other rain measurements)
** Current wind speed in m/s (hover to see current wind gust speed)